GFSFLT2_prec_cthk_072.txt.gz
RH
90 98 99 92 98 92 86 75 64 51 44 43 43 47 48 49 47 43 49 52 53 54 56 43 44 46 42 43 44 46 49 38
71 76 90 99 99 94 81 74 63 51 48 48 50 51 57 52 52 50 54 55 57 58 51 49 53 51 45 44 41 39 41 33
77 74 83 90 94 89 81 72 60 53 52 55 58 61 62 56 55 54 57 58 58 56 53 56 58 54 43 38 32 32 30 30
84 81 84 89 89 91 84 72 61 62 60 62 66 65 60 60 61 60 55 58 58 58 53 57 60 57 47 33 27 27 28 28
89 86 91 96 94 91 87 82 80 73 62 65 70 66 66 65 61 55 54 56 55 54 61 61 57 54 43 29 28 30 28 26
93 91 91 99 94 93 94 89 76 71 69 74 76 76 71 63 58 55 56 58 58 63 68 63 53 44 32 30 31 29 26 25
83 86 90 98 95 95 96 89 75 77 76 79 78 78 66 65 61 55 57 60 61 70 67 60 50 37 32 33 30 29 28 25
81 85 94 99 97 98 93 85 85 82 81 85 86 76 73 70 63 60 60 60 65 69 66 53 46 37 34 32 31 29 28 26
84 94 99 98 96 95 94 87 87 87 87 85 77 76 79 72 64 65 61 67 71 75 58 51 49 35 34 33 33 34 33 33
96 95 93 91 91 91 90 91 89 86 76 70 71 73 66 65 62 64 69 79 79 66 55 52 47 36 35 34 34 37 41 41
94 93 87 77 70 69 65 66 65 65 62 59 55 66 74 63 69 71 77 83 73 61 53 51 46 36 36 37 39 43 46 47
82 75 72 66 58 59 61 61 59 60 65 60 62 65 62 73 72 74 82 76 65 57 54 52 46 38 38 36 43 51 53 52
75 75 77 74 73 63 55 47 44 50 50 55 67 74 69 70 78 83 80 66 59 57 56 53 49 40 41 46 53 57 59 59
57 57 66 57 49 42 39 38 43 47 54 61 63 65 66 67 74 75 74 65 63 61 59 57 54 44 48 54 60 62 61 62
45 54 55 51 46 48 48 48 48 49 57 57 59 63 67 70 70 76 82 77 70 69 68 67 60 55 58 59 68 71 72 69
50 51 55 53 54 57 51 50 50 53 56 63 61 60 63 70 75 83 86 85 88 79 77 79 72 66 63 66 72 73 75 73
44 49 52 52 54 60 58 55 55 54 60 64 72 70 72 72 77 81 85 91 93 93 88 85 84 78 70 70 79 80 82 79
47 47 52 55 62 64 67 68 71 73 76 79 83 84 75 83 86 88 92 92 92 95 97 93 89 86 77 80 84 86 87 86
50 50 50 58 63 68 68 69 73 72 75 74 76 80 76 77 82 87 91 93 95 97 92 97 95 90 82 87 92 92 91 92
55 53 52 59 63 63 68 72 73 74 75 74 73 73 66 69 74 78 88 93 96 97 98 95 98 90 89 93 95 97 97 95

GFSFLT2_prec_cthk_075.txt.gz
RH
87 88 96 98 94 89 88 79 66 49 40 40 42 43 46 46 46 47 47 48 50 54 51 50 43 35 41 43 41 40 39 34
83 85 92 98 99 98 91 78 67 48 42 45 46 46 51 50 52 57 58 59 58 56 56 51 39 45 44 44 38 34 34 28
84 82 78 88 98 98 92 78 63 49 48 50 51 51 56 55 59 58 63 63 63 64 59 53 47 46 45 41 32 28 27 26
84 81 80 86 84 94 90 74 60 55 54 55 55 55 58 63 62 63 64 64 67 61 58 54 52 51 44 37 27 26 26 26
81 86 88 90 86 93 89 76 66 63 61 60 60 59 64 66 63 65 65 64 63 63 57 54 55 50 41 35 25 27 26 25
76 82 88 86 95 94 85 85 84 73 69 70 68 67 70 67 67 66 63 66 62 59 59 61 58 47 31 28 27 25 26 24
74 79 85 85 94 91 90 85 75 73 73 74 71 72 70 69 65 64 67 65 63 62 66 68 58 39 28 29 28 28 26 25
71 76 83 82 89 90 85 82 86 83 79 79 75 74 70 67 66 65 65 66 68 62 72 66 53 37 30 32 30 30 28 27
77 76 82 88 95 94 88 89 86 84 83 83 79 72 69 68 66 63 63 64 62 69 76 65 50 42 32 33 30 32 31 33
77 79 85 89 93 89 88 87 85 86 85 81 73 71 75 70 65 62 63 63 68 82 80 59 48 44 33 33 33 33 38 39
75 87 89 89 91 90 89 89 83 81 77 73 74 71 71 65 62 62 69 72 82 85 72 56 49 46 38 34 33 36 42 46
84 81 76 73 72 70 70 68 65 63 65 61 60 62 64 68 66 73 74 78 84 76 64 55 50 49 39 35 35 38 45 50
63 53 51 51 49 49 48 51 51 57 56 56 57 60 60 69 68 76 78 82 78 68 60 56 52 48 45 38 39 44 50 55
54 54 48 39 36 36 40 40 43 47 48 53 59 66 66 60 62 71 75 77 77 69 63 59 58 55 55 49 48 53 57 62
42 45 44 41 42 41 41 44 41 43 47 49 54 57 57 60 66 69 73 76 79 81 78 76 74 70 68 63 61 62 62 65
36 40 39 38 37 37 37 38 41 40 41 44 48 57 60 60 61 63 70 76 79 83 87 92 93 86 82 80 76 76 73 74
37 40 42 43 42 42 47 53 50 53 56 54 59 69 71 74 73 77 75 77 82 86 93 94 91 92 89 89 87 85 81 81
44 43 43 47 51 55 61 65 64 57 66 70 69 74 86 85 75 78 85 86 89 89 91 95 94 96 96 96 94 89 85 86
46 45 45 47 53 59 69 69 68 70 66 69 73 73 80 90 85 75 73 76 82 83 90 91 95 95 97 98 96 96 94 96
48 50 51 53 59 66 69 71 67 61 61 61 64 71 75 78 75 72 73 79 81 83 88 90 94 99 98 99 97 97 98 98

GFSFLT2_prec_cthk_078.txt.gz
RH
97 96 93 94 93 90 89 92 74 47 40 42 43 42 40 42 43 43 46 47 44 42 41 47 52 49 43 39 37 38 36 31
91 90 87 87 99 97 87 90 68 47 43 46 45 44 43 47 47 48 51 56 55 58 51 48 49 44 40 39 38 36 32 28
91 85 91 91 99 98 98 89 64 47 47 48 50 48 48 51 52 53 56 61 61 61 58 52 50 42 46 44 33 29 26 23
89 85 87 87 93 96 96 81 60 51 54 51 53 54 52 51 54 59 64 66 64 64 60 53 48 45 45 43 34 26 24 23
77 81 80 81 85 86 91 73 62 57 58 56 57 58 55 56 60 65 64 68 63 63 57 57 53 45 42 39 33 25 23 23
77 77 77 82 81 87 91 82 73 66 63 61 59 62 57 59 63 66 67 68 65 62 60 57 53 48 41 33 31 25 25 23
76 78 82 82 77 81 85 83 80 71 75 72 67 65 64 62 66 66 67 67 66 61 60 58 58 51 38 29 27 27 27 23
69 78 80 81 75 80 79 80 75 82 78 72 67 68 67 67 67 65 63 66 65 60 60 62 64 52 35 29 28 30 29 27
72 75 72 75 76 81 82 78 85 83 74 72 73 73 73 69 66 60 63 65 64 60 62 67 63 54 35 31 31 30 29 30
73 78 77 77 84 84 85 85 83 78 75 78 77 79 76 67 61 61 61 62 62 61 67 72 65 52 39 32 32 30 30 33
78 77 82 83 90 87 83 85 82 82 83 81 84 80 71 63 64 59 57 60 61 66 77 74 64 47 43 39 32 33 32 35
79 86 90 89 88 82 83 88 88 82 83 83 78 72 68 62 57 56 60 65 67 74 79 73 58 50 46 43 37 33 34 40
75 72 73 76 77 75 74 74 70 64 69 68 65 64 62 59 61 63 67 70 72 75 74 68 58 56 54 51 47 41 38 44
59 56 56 59 62 60 59 57 56 57 56 59 62 62 60 58 56 60 64 67 70 74 75 71 68 68 66 63 61 61 57 58
46 43 37 40 44 46 45 45 43 43 45 46 49 48 53 54 52 57 59 63 69 76 77 77 77 82 86 85 81 77 76 74
34 35 33 34 32 34 34 34 35 38 41 42 45 46 49 52 54 55 56 61 64 73 78 82 87 86 90 92 90 90 87 82
32 34 33 32 32 32 33 37 41 44 46 44 44 48 55 59 64 66 69 73 77 82 80 84 91 95 92 89 94 93 90 91
34 34 36 37 37 39 43 44 47 46 48 51 51 54 60 70 75 72 66 67 72 78 83 85 82 88 87 92 92 97 97 96
40 40 41 43 46 47 51 56 58 61 62 61 60 58 61 65 77 88 79 74 74 74 79 78 78 86 88 84 93 98 97 97
41 42 43 45 47 47 51 59 60 62 62 62 60 58 60 64 69 81 85 77 72 81 83 77 77 84 77 92 78 85 92 93

GFSFLT2_prec_cthk_084.txt.gz
RH
88 90 97 93 91 96 84 63 60 62 66 53 59 36 39 40 41 43 43 43 45 45 44 43 41 42 41 41 38 35 32 30
86 88 92 97 96 97 95 87 79 73 65 54 64 40 38 38 43 52 48 49 48 48 49 45 48 44 43 43 42 38 33 27
86 87 89 91 95 94 95 96 92 84 69 52 56 37 39 40 47 52 52 52 52 54 51 48 56 50 48 49 41 36 32 27
88 89 90 86 87 88 98 97 93 93 78 58 55 40 42 44 51 52 54 55 57 57 54 55 60 56 55 44 41 35 28 24
78 87 93 91 91 95 96 97 98 94 69 57 50 45 48 52 53 55 54 57 58 58 57 59 61 54 54 44 40 36 30 25
73 81 90 91 88 94 98 98 98 94 86 61 57 48 50 55 60 60 61 62 64 62 60 63 57 51 47 42 38 36 33 27
79 78 88 93 90 89 98 97 96 96 82 64 58 51 54 58 64 66 67 70 72 69 67 62 56 50 46 42 39 37 32 28
79 77 87 90 93 98 98 97 94 96 88 65 62 54 63 60 68 68 73 75 75 73 70 65 62 54 49 45 42 37 30 28
81 79 86 86 95 97 96 96 92 88 90 84 66 67 68 71 70 74 76 80 79 76 69 67 65 60 53 49 45 36 29 28
78 76 81 88 87 91 93 93 92 93 89 88 80 74 74 75 77 77 80 81 80 76 68 67 67 62 58 54 45 37 32 31
76 77 81 93 92 92 94 93 88 84 87 90 86 83 81 77 77 78 82 80 80 75 69 68 68 67 68 66 51 39 34 34
76 75 79 91 94 91 94 93 91 92 90 95 90 87 84 80 79 78 78 77 74 72 69 69 67 77 77 73 60 47 44 43
73 80 82 89 92 92 94 91 88 90 89 90 93 90 83 80 79 78 78 73 70 66 67 69 75 85 81 75 64 56 58 58
80 83 93 95 94 94 93 89 89 96 97 96 91 88 82 80 80 78 75 68 63 65 72 76 78 80 78 81 75 69 70 70
65 76 84 91 97 96 94 89 87 90 91 88 90 88 85 79 77 72 70 66 65 70 73 76 78 81 84 85 85 79 75 77
49 55 62 69 75 76 78 72 72 78 80 86 88 81 78 79 71 67 64 63 68 67 67 68 72 77 84 86 84 83 85 81
36 39 46 49 53 54 56 60 61 65 70 75 70 70 70 69 62 58 56 58 59 58 59 67 71 75 80 88 89 84 77 81
30 29 32 37 40 41 42 46 48 50 49 51 51 52 54 52 52 54 56 57 60 66 73 79 82 87 88 90 91 83 80 83
37 35 33 35 38 42 42 46 51 52 54 52 50 51 52 52 55 59 62 66 67 73 77 76 77 81 89 87 85 83 83 75
38 36 37 38 39 41 41 49 53 56 57 58 58 57 57 55 55 55 57 60 64 68 77 85 91 95 94 93 87 83 80 75

GFSFLT2_prec_cthk_087.txt.gz
RH
76 84 98 89 96 97 90 73 69 56 49 54 58 64 51 37 37 36 38 42 46 47 46 45 44 39 37 35 33 33 32 34
78 84 88 93 94 98 95 90 70 63 57 56 58 57 53 36 35 37 43 48 52 51 51 52 47 42 41 39 37 36 35 34
70 85 86 93 94 95 98 96 90 81 64 58 60 60 62 36 36 40 49 53 54 54 56 54 49 45 53 42 41 43 38 34
66 79 88 91 90 96 96 98 97 91 78 66 62 60 61 39 38 45 51 55 58 59 58 55 53 53 57 51 47 41 36 32
63 74 87 91 94 96 95 98 98 96 89 77 62 58 55 39 41 52 54 58 60 62 62 59 55 55 56 51 47 41 36 30
63 74 86 91 96 97 95 93 97 99 95 77 61 59 56 44 46 51 55 60 60 65 62 61 58 58 56 51 49 41 36 31
72 80 82 91 95 95 95 94 98 98 93 80 66 64 60 48 50 52 58 59 64 66 64 63 59 56 52 48 45 42 37 32
74 80 85 90 92 94 95 97 100 97 89 80 69 54 49 50 53 55 61 66 68 66 68 66 59 56 56 53 49 43 37 35
78 80 86 90 88 92 95 98 99 95 89 76 70 62 61 58 61 64 69 71 74 72 74 69 64 60 59 56 52 46 42 38
75 81 88 91 92 93 98 99 99 97 90 78 75 71 69 65 72 78 77 79 77 77 75 73 70 66 63 59 55 50 47 40
81 84 84 91 97 98 99 96 98 96 92 83 77 77 73 76 81 85 86 84 84 82 81 78 76 73 69 64 62 55 46 40
78 78 88 93 97 97 98 97 97 95 93 91 84 82 80 87 85 88 89 88 85 83 81 79 78 77 75 78 74 65 55 51
80 74 81 90 94 96 95 97 97 96 95 88 87 81 86 85 85 83 84 83 82 81 81 79 77 74 75 84 81 73 68 62
72 76 81 82 92 92 94 96 98 97 94 90 94 90 89 88 83 83 82 81 79 75 75 74 72 72 76 83 79 77 79 77
72 79 81 85 90 94 94 93 92 93 96 96 91 90 88 84 85 83 81 79 79 72 66 66 74 79 80 82 83 82 85 85
56 67 79 86 91 96 96 90 91 91 91 91 94 92 90 87 85 79 74 75 74 67 65 71 76 77 74 73 78 81 86 85
41 47 58 68 76 83 86 80 77 79 87 87 91 90 90 80 72 69 70 72 70 71 70 69 68 68 65 67 72 76 85 89
30 34 39 46 50 56 58 59 58 66 71 72 74 70 69 68 67 70 67 64 64 65 65 65 67 65 69 76 79 87 90 93
30 29 33 36 37 40 44 46 45 49 49 56 56 59 62 63 65 64 63 63 62 62 61 62 64 67 70 74 82 87 90 93
33 32 31 34 37 41 46 49 51 51 54 55 54 56 60 58 58 60 61 62 61 63 64 63 64 69 74 81 87 94 97 96